Weather History for Tioga Municipal Airport, ND

Change the Weather History Date:

Wednesday, January 1, 2014

  Actual Average (KISN) Record (KISN)
Temperature  
Mean Temperature -4 °F 11 °F  
Max Temperature -2 °F 22 °F 48 °F (1998)
Min Temperature -7 °F 0 °F -33 °F (1982)
Degree Days  
Heating Degree Days 70 54  
Month to date heating degree days 54  
Since 1 July heating degree days 3801  
Cooling Degree Days 0 0  
Month to date cooling degree days 0  
Year to date cooling degree days 0  
Moisture  
Dew Point -8 °F    
Average Humidity 80    
Maximum Humidity 92    
Minimum Humidity 71    
Precipitation  
Precipitation 0.02 in 0.02 in 0.52 in (1954)
Month to date precipitation 0.02  
Year to date precipitation 0.02  
Sea Level Pressure  
Sea Level Pressure 30.27 in    
Wind  
Wind Speed 5 mph (SSW)    
Max Wind Speed 12 mph    
Max Gust Speed -    
Visibility 9 miles    
Events Snow    
T = Trace of Precipitation, MM = Missing Value Source: NWS Daily Summary

Daily Weather History Graph

Daily Weather History Graph

Search for Another Location

Airport:

Trip Planner

Search our weather history database for the weather conditions in past years. The results will help you decide how hot, cold, wet, or windy it might be!

Date:

Astronomy

Jan. 01, 2014 Rise Set
Actual Time 8:43 AM CST 5:07 PM CST
Civil Twilight 8:06 AM CST 5:44 PM CST
Nautical Twilight 7:26 AM CST 6:24 PM CST
Astronomical Twilight 6:48 AM CST 7:02 PM CST
Moon 8:29 AM CST (1/1) 6:01 PM CST (1/1)
Length of Visible Light 9h 37m
Length of Day
8h 24m
New Moon, 0% of the Moon is Illuminated
Jan 1
New Moon
Jan 7
First Quarter
Jan 15
Full
Jan 23
Last Quarter
Jan 30
New

Hourly Weather History & Observations

Time (CST) Temp. Windchill Dew Point Humidity Pressure Visibility Wind Dir Wind Speed Gust Speed Precip Events Conditions
12:15 AM -5.8 °F -24.4 °F -11.2 °F 77% 30.16 in 10.0 mi SE 11.5 mph - N/A   Overcast
12:35 AM -5.8 °F -22.4 °F -11.2 °F 77% 30.16 in 7.0 mi SE 9.2 mph - N/A Snow Light Snow
12:55 AM -5.8 °F -23.4 °F -9.4 °F 84% 30.15 in 5.0 mi SSE 10.4 mph - N/A Snow Light Snow
1:15 AM -5.8 °F -19.9 °F -9.4 °F 84% 30.16 in 5.0 mi SE 6.9 mph - N/A Snow Light Snow
1:35 AM -5.8 °F -19.9 °F -9.4 °F 84% 30.16 in 2.5 mi SSE 6.9 mph - 0.01 in Snow Light Snow
1:55 AM -4.0 °F -19.0 °F -9.4 °F 78% 30.16 in 4.0 mi SE 8.1 mph - 0.02 in Snow Light Snow
2:15 AM -4.0 °F -20.2 °F -9.4 °F 78% 30.16 in 4.0 mi SE 9.2 mph - N/A Snow Light Snow
2:35 AM -4.0 °F -20.2 °F -9.4 °F 78% 30.16 in 5.0 mi SE 9.2 mph - N/A Snow Light Snow
2:55 AM -4.0 °F -19.0 °F -9.4 °F 78% 30.16 in 7.0 mi SE 8.1 mph - N/A Snow Light Snow
3:15 AM -4.0 °F -17.8 °F -9.4 °F 78% 30.17 in 10.0 mi SE 6.9 mph - N/A   Overcast
3:35 AM -4.0 °F -17.8 °F -9.4 °F 78% 30.18 in 6.0 mi SE 6.9 mph - N/A Snow Light Snow
3:55 AM -4.0 °F -14.6 °F -9.4 °F 78% 30.18 in 7.0 mi ESE 4.6 mph - N/A Snow Light Snow
4:15 AM -4.0 °F -16.3 °F -9.4 °F 78% 30.18 in 10.0 mi SE 5.8 mph - N/A   Overcast
4:35 AM -4.0 °F -16.3 °F -9.4 °F 78% 30.18 in 10.0 mi SE 5.8 mph - N/A   Overcast
4:55 AM -4.0 °F -16.3 °F -9.4 °F 78% 30.18 in 10.0 mi SSE 5.8 mph - N/A   Overcast
5:15 AM -4.0 °F -16.3 °F -9.4 °F 78% 30.18 in 10.0 mi SE 5.8 mph - N/A   Overcast
5:35 AM -4.0 °F -14.6 °F -7.6 °F 85% 30.18 in 10.0 mi SE 4.6 mph - N/A   Overcast
5:55 AM -4.0 °F -12.4 °F -7.6 °F 85% 30.19 in 10.0 mi ESE 3.5 mph - N/A   Overcast
6:15 AM -4.0 °F -12.4 °F -7.6 °F 85% 30.20 in 10.0 mi SE 3.5 mph - N/A   Overcast
6:35 AM -4.0 °F -12.4 °F -7.6 °F 85% 30.21 in 10.0 mi SE 3.5 mph - N/A   Overcast
6:55 AM -4.0 °F - -7.6 °F 85% 30.21 in 10.0 mi Calm Calm - N/A   Overcast
7:15 AM -4.0 °F - -7.6 °F 85% 30.21 in 10.0 mi Calm Calm - N/A   Overcast
7:35 AM -4.0 °F - -7.6 °F 85% 30.23 in 10.0 mi Calm Calm - N/A   Overcast
7:55 AM -2.2 °F - -7.6 °F 78% 30.24 in 10.0 mi Calm Calm - N/A   Overcast
8:15 AM -4.0 °F - -7.6 °F 85% 30.24 in 10.0 mi Calm Calm - N/A   Overcast
8:35 AM -2.2 °F - -7.6 °F 78% 30.25 in 10.0 mi Calm Calm - N/A Snow Light Snow
8:55 AM -2.2 °F - -7.6 °F 78% 30.27 in 10.0 mi Calm Calm - N/A Snow Light Snow
9:15 AM -2.2 °F - -7.6 °F 78% 30.28 in 7.0 mi Calm Calm - N/A Snow Light Snow
9:35 AM -2.2 °F -10.4 °F -7.6 °F 78% 30.30 in 7.0 mi NNE 3.5 mph - N/A Snow Light Snow
9:55 AM -4.0 °F - -7.6 °F 85% 30.30 in 8.0 mi Calm Calm - N/A Snow Light Snow
10:15 AM -4.0 °F -12.4 °F -9.4 °F 78% 30.31 in 10.0 mi NNE 3.5 mph - N/A   Mostly Cloudy
10:35 AM -4.0 °F - -9.4 °F 78% 30.31 in 10.0 mi Calm Calm - N/A   Partly Cloudy
10:55 AM -7.6 °F - -9.4 °F 92% 30.32 in 10.0 mi Calm Calm - N/A   Partly Cloudy
11:15 AM -7.6 °F - -11.2 °F 84% 30.32 in 10.0 mi Calm Calm - N/A   Mostly Cloudy
11:35 AM -7.6 °F -18.8 °F -11.2 °F 84% 30.32 in 10.0 mi WSW 4.6 mph - N/A   Partly Cloudy
11:55 AM -4.0 °F -14.6 °F -7.6 °F 85% 30.32 in 10.0 mi WSW 4.6 mph - N/A   Mostly Cloudy
12:15 PM -2.2 °F -12.5 °F -7.6 °F 78% 30.32 in 10.0 mi West 4.6 mph - N/A   Overcast
12:35 PM -2.2 °F -14.2 °F -7.6 °F 78% 30.31 in 10.0 mi NW 5.8 mph - N/A   Mostly Cloudy
12:55 PM -2.2 °F -15.6 °F -7.6 °F 78% 30.31 in 10.0 mi NW 6.9 mph - N/A   Scattered Clouds
1:15 PM -2.2 °F -18.0 °F -7.6 °F 78% 30.32 in 10.0 mi NW 9.2 mph - N/A   Overcast
1:35 PM -2.2 °F -16.8 °F -7.6 °F 78% 30.32 in 10.0 mi NW 8.1 mph - N/A   Overcast
1:55 PM -2.2 °F -14.2 °F -7.6 °F 78% 30.31 in 10.0 mi NNW 5.8 mph - N/A   Overcast
2:15 PM -2.2 °F -14.2 °F -7.6 °F 78% 30.32 in 10.0 mi NW 5.8 mph - N/A   Overcast
2:35 PM -2.2 °F -12.5 °F -9.4 °F 71% 30.31 in 10.0 mi NW 4.6 mph - N/A   Mostly Cloudy
2:55 PM -2.2 °F -15.6 °F -9.4 °F 71% 30.32 in 10.0 mi WNW 6.9 mph - N/A   Clear
3:15 PM -4.0 °F -17.8 °F -9.4 °F 78% 30.31 in 10.0 mi NW 6.9 mph - N/A   Partly Cloudy
3:35 PM -2.2 °F -14.2 °F -7.6 °F 78% 30.32 in 10.0 mi NW 5.8 mph - N/A   Scattered Clouds
3:55 PM -2.2 °F -12.5 °F -7.6 °F 78% 30.31 in 10.0 mi NW 4.6 mph - N/A Snow Light Snow
4:15 PM -2.2 °F -12.5 °F -7.6 °F 78% 30.33 in 10.0 mi NW 4.6 mph - N/A Snow Light Snow
4:35 PM -4.0 °F -12.4 °F -7.6 °F 85% 30.33 in 10.0 mi NW 3.5 mph - N/A   Mostly Cloudy
4:55 PM -5.8 °F -14.5 °F -9.4 °F 84% 30.33 in 10.0 mi West 3.5 mph - N/A   Scattered Clouds
5:15 PM -5.8 °F -14.5 °F -9.4 °F 84% 30.32 in 10.0 mi West 3.5 mph - N/A   Overcast
5:35 PM -4.0 °F -14.6 °F -9.4 °F 78% 30.32 in 10.0 mi WSW 4.6 mph - N/A   Overcast
5:55 PM -4.0 °F - -7.6 °F 85% 30.32 in 10.0 mi Calm Calm - N/A Snow Light Snow
6:15 PM -4.0 °F -16.3 °F -7.6 °F 85% 30.32 in 10.0 mi West 5.8 mph - N/A   Overcast
6:35 PM -4.0 °F -14.6 °F -7.6 °F 85% 30.32 in 10.0 mi WSW 4.6 mph - N/A   Mostly Cloudy
6:55 PM -4.0 °F -14.6 °F -7.6 °F 85% 30.32 in 10.0 mi West 4.6 mph - N/A Snow Light Snow
7:15 PM -2.2 °F -10.4 °F -7.6 °F 78% 30.32 in 10.0 mi West 3.5 mph - N/A   Scattered Clouds
7:35 PM -2.2 °F - -7.6 °F 78% 30.31 in 10.0 mi Calm Calm - N/A Snow Light Snow
7:55 PM -2.2 °F - -7.6 °F 78% 30.31 in 10.0 mi Calm Calm - N/A Snow Light Snow
8:15 PM -2.2 °F - -7.6 °F 78% 30.30 in 10.0 mi Calm Calm - N/A   Overcast
8:35 PM -2.2 °F - -7.6 °F 78% 30.31 in 10.0 mi Calm Calm - N/A   Overcast
8:55 PM -2.2 °F -10.4 °F -7.6 °F 78% 30.31 in 10.0 mi SW 3.5 mph - N/A   Overcast
9:15 PM -2.2 °F - -7.6 °F 78% 30.32 in 10.0 mi Calm Calm - N/A   Overcast
9:35 PM -2.2 °F - -7.6 °F 78% 30.31 in 10.0 mi Calm Calm - N/A   Overcast
9:55 PM -2.2 °F - -7.6 °F 78% 30.31 in 10.0 mi Calm Calm - N/A   Overcast
10:15 PM -2.2 °F - -7.6 °F 78% 30.30 in 10.0 mi Calm Calm - N/A   Overcast
10:35 PM -4.0 °F - -7.6 °F 85% 30.30 in 10.0 mi Calm Calm - N/A   Overcast
10:55 PM -4.0 °F -12.4 °F -7.6 °F 85% 30.29 in 10.0 mi ESE 3.5 mph - N/A   Overcast
11:15 PM -4.0 °F - -7.6 °F 85% 30.29 in 10.0 mi Calm Calm - N/A   Overcast
11:35 PM -5.8 °F -16.7 °F -9.4 °F 84% 30.30 in 10.0 mi East 4.6 mph - N/A   Overcast
11:55 PM -5.8 °F - -9.4 °F 84% 30.30 in 10.0 mi Calm Calm - N/A   Overcast